Погода в Березовке

Россия / Нижегородская область     55°21′18″N   43°51′25″E
темп.,
°C
ветер,
м/с
пор.,
м/с
влажн.,
%
обл.,
%
осадки,
мм/ч
давл.,
гПа
погр.,
м
14 апреля, ср
ср1400:00+10ююв4106631 0.0 1028142
03:00+8ююв496941 0.0 1027131
06:00+8ююв497128 0.0 1026141
09:00+13ююв585091 0.0 1025331
12:00+18ююв573452 0.0 10241098
15:00+19ююв673253 0.0 10221495
18:00+16ююв33510 0.0 102146
21:00+11ю33635 0.0 102138
15 апреля, чт
чт1500:00+10ююв33675 0.0 102037
03:00+8ююв337361 0.0 102028
06:00+8ююв337554 0.0 102032
09:00+13ююв235742 0.0 1019306
12:00+17ююв2343100 0.0 10181010
15:00+18ююв0237100 0.0 10171889
18:00+16св3458100 0.0 101756
21:00+12в3367100 0.0 101840
16 апреля, пт
пт1600:00+10св51077100 0.0 1019214
03:00+7св61291100 0.0 1021351
06:00+6всв61390100 0.0 1022408
09:00+9всв71078100 0.0 1023535
12:00+11всв7967100 0.0 1024787
15:00+13всв7861100 0.0 10241046
18:00+11всв696679 0.0 1024580
21:00+8всв61363100 0.0 1026382
17 апреля, сб
сб1700:00+6всв51264100 0.0 1026349
03:00+4всв5127078 0.0 1027305
06:00+3всв5127168 0.0 1029318
09:00+7всв710515 0.0 1029725
12:00+10всв78405 0.0 10291191
15:00+11всв68385 0.0 10281425
18:00+10всв48505 0.0 1029307
21:00+6всв36675 0.0 1030106
18 апреля, вс
вс1800:00+5всв36730 0.0 103090
03:00+3всв36790 0.0 1031113
06:00+3всв38825 0.0 1032201
09:00+8всв46600 0.0 1032666
12:00+10всв56485 0.0 10311274
15:00+11всв564410 0.0 10311430
18:00+10всв475568 0.0 1031349
21:00+6в356773 0.0 103281